Location: Buckeye Ditch
(40.9104°N, 122.9517°W)
Time: 07:45:07
(UTC+00:00)

Altair - Visible Passes

Search period start: 24 May 2025 00:00
Search period end: 03 June 2025 00:00
Orbit: 1501 x 1682 km, 47.2° (Epoch: 23 May)

Date Brightness Start Highest point End Pass type
(mag) Time Alt. Az. Time Alt. Az. Time Alt. Az.
24 May 9.0 12:07:12 10° S 12:14:49 27° SE 12:22:39 10° ENE visible
25 May 9.1 11:42:28 10° S 11:49:43 25° SE 11:57:08 10° ENE visible
26 May 9.1 11:17:50 10° S 11:24:37 22° SE 11:31:34 10° E visible
27 May 9.2 10:53:16 10° SSE 10:59:32 20° SE 11:05:56 10° E visible
28 May 9.2 10:28:48 10° SSE 10:34:27 17° ESE 10:40:13 10° E visible
29 May 9.2 10:04:29 10° SSE 10:09:23 15° ESE 10:14:22 10° E visible
29 May 8.0 12:03:12 10° SW 12:12:27 57° SE 12:22:04 10° ENE visible
30 May 9.2 09:40:23 10° SSE 09:44:20 13° ESE 09:48:19 10° E visible
30 May 8.0 11:38:22 11° SSW 11:47:16 53° SE 11:56:45 10° ENE visible
31 May 9.3 09:16:47 10° SE 09:19:17 11° ESE 09:21:48 10° ESE visible
31 May 8.1 11:14:28 15° SSW 11:22:06 49° SE 11:31:25 10° ENE visible
01 Jun 8.1 10:50:31 19° SSW 10:56:57 45° SE 11:06:03 10° ENE visible
02 Jun 8.1 10:26:31 23° S 10:31:48 41° SE 10:40:42 10° ENE visible
